CAPE
0 0 0 0 0 0 0 0 0 0 0 0 0 0 4 25 3 0 1 103 402 636 843 1120 1259 1344 1099 975 1066 1179 1063 742 595 494 482 496 498 480 433 413 453 510 483 442 335 367 565 879 822
0 0 0 0 0 0 0 0 0 0 0 0 0 1 7 12 14 78 338 498 622 822 816 906 965 1111 973 872 953 1001 976 933 809 644 514 486 509 597 625 537 434 335 311 349 365 313 305 477 622
0 0 0 0 0 0 0 0 0 0 0 0 5 0 0 0 0 162 436 691 797 795 666 637 885 1067 998 805 704 648 580 557 504 481 503 537 537 584 562 544 459 410 392 300 224 263 335 311 445
0 0 0 0 0 0 0 0 0 0 0 0 0 0 0 0 6 333 452 461 479 586 592 690 967 1077 977 918 668 574 516 456 401 348 330 327 336 387 379 378 404 317 315 280 246 252 310 549 583
0 0 0 0 0 0 0 0 0 0 0 0 0 0 0 14 140 404 193 257 274 291 444 612 731 886 900 794 727 657 573 522 479 415 367 335 302 292 263 244 270 231 150 216 163 136 331 503 499
0 0 0 0 0 0 0 0 0 0 0 0 0 0 0 73 234 114 10 27 43 39 41 106 167 244 331 378 270 199 171 96 103 147 200 193 116 78 102 165 249 316 331 300 214 232 518 568 553
0 0 0 0 0 0 0 0 0 0 0 0 0 0 0 58 123 5 0 0 0 0 0 0 0 6 11 8 0 0 0 0 0 0 0 0 0 0 0 0 0 6 28 138 253 226 190 251 401
0 0 0 0 0 0 0 0 0 0 0 0 0 0 0 0 0 0 0 0 0 0 0 0 0 0 0 0 0 0 0 0 0 0 0 0 0 0 0 0 0 0 0 0 0 0 23 119 84
0 0 0 0 0 0 0 0 0 0 0 0 0 0 0 0 0 0 0 0 0 0 0 0 0 0 0 0 0 0 0 0 0 0 0 0 0 0 0 0 0 0 0 0 0 0 0 0 1
0 0 0 0 0 0 0 0 0 0 0 0 0 0 0 0 0 0 0 0 0 0 0 0 0 0 0 0 0 0 0 0 0 0 0 0 0 0 0 0 0 0 0 0 0 0 0 0 0
0 0 0 0 0 0 0 0 0 0 0 0 0 0 0 0 0 0 0 0 0 0 0 0 0 0 0 0 0 0 0 0 0 0 0 0 0 0 0 0 0 0 0 0 0 0 0 0 0
0 0 0 0 0 0 0 0 0 0 0 0 0 0 0 0 0 0 0 0 0 0 0 0 0 0 0 0 0 0 0 0 0 0 0 0 0 0 0 0 0 0 0 0 0 0 0 0 0
0 0 0 0 0 0 0 0 0 0 0 0 0 0 0 0 0 0 0 0 0 0 0 0 0 0 0 0 0 0 0 0 0 0 0 0 0 0 0 0 0 0 0 0 0 0 0 0 0
0 0 0 0 0 0 0 0 0 0 0 0 0 0 0 0 0 0 0 0 0 0 0 0 0 0 0 0 0 0 0 0 0 0 0 0 0 0 0 0 0 0 0 0 0 0 0 0 0
0 0 0 0 0 0 0 0 0 0 0 0 0 0 0 0 0 0 0 0 0 0 0 0 0 0 0 0 0 0 0 0 0 0 0 0 0 0 0 0 0 0 0 0 0 0 0 0 0
0 0 0 0 0 0 0 0 0 0 0 0 0 0 0 0 0 0 0 0 0 0 0 0 0 0 0 0 0 0 0 0 0 0 0 0 0 0 0 0 0 0 0 0 0 0 0 0 0
0 0 0 0 0 0 0 0 0 0 0 0 0 0 0 0 0 0 0 0 0 0 0 0 0 0 0 0 0 0 0 0 0 0 0 0 0 0 0 0 0 0 0 0 0 0 0 0 0
0 0 0 0 0 0 0 0 0 0 0 0 0 0 0 0 0 0 0 0 0 0 0 0 0 0 0 0 0 0 0 0 0 0 0 0 0 0 0 0 0 0 0 0 0 0 0 0 0
0 0 0 0 0 0 0 0 0 0 0 0 0 0 0 0 0 0 0 0 0 0 0 0 0 0 0 0 0 0 0 0 0 0 0 0 0 0 0 0 0 0 0 0 0 0 0 0 0
0 0 0 0 0 0 0 0 0 0 0 0 0 0 0 0 0 0 0 0 0 0 0 0 0 0 0 0 0 0 0 0 0 0 0 0 0 0 0 0 0 0 0 0 0 0 0 0 0
0 0 0 0 0 0 0 0 0 0 0 0 0 0 0 0 0 0 0 0 0 0 0 0 0 0 0 0 0 0 0 0 0 0 0 0 0 0 0 0 0 0 0 0 0 0 3 6 4
0 0 0 0 0 0 0 0 0 0 0 0 0 0 0 0 0 0 0 0 0 0 0 0 0 0 0 0 0 0 0 0 0 0 0 0 0 0 0 0 0 0 0 0 0 1 2 1 5
0 0 0 0 0 0 0 0 0 0 0 0 0 0 0 0 0 0 0 0 0 0 0 0 0 0 0 0 0 0 0 0 0 0 0 0 0 0 0 0 0 0 0 0 0 0 6 10 12
0 0 0 0 0 0 0 0 0 0 0 0 0 0 0 0 0 0 0 0 0 0 0 0 0 0 0 0 0 0 0 0 0 0 0 0 0 0 0 0 0 0 0 0 1 5 4 5 8
0 0 0 0 0 0 0 0 0 0 0 0 0 0 0 0 0 0 0 0 0 0 0 0 0 0 0 0 0 0 0 0 0 0 0 0 0 0 0 0 0 0 3 1 2 0 3 7 8
0 0 0 0 0 0 0 0 0 0 0 0 0 0 0 0 0 0 0 0 0 0 0 0 0 0 0 0 0 0 0 0 0 0 0 0 0 0 0 0 0 0 0 0 2 4 4 6 7
0 0 0 0 0 0 0 0 0 0 0 0 0 0 0 0 0 0 0 0 0 0 0 0 0 0 0 0 0 0 0 0 0 0 0 0 0 0 0 0 0 0 0 1 2 4 6 6 3
0 0 0 0 0 0 0 0 0 0 0 0 0 0 0 0 0 0 0 0 0 0 0 0 0 0 0 0 0 0 0 0 0 0 0 0 0 0 0 0 0 0 0 1 2 3 2 3 3
0 0 0 0 0 0 0 0 0 0 0 0 0 0 0 0 0 0 0 0 0 0 0 0 0 0 0 0 0 0 0 0 0 0 0 0 0 0 0 0 0 0 0 1 2 1 2 2 2
0 0 0 0 0 0 0 0 0 0 0 0 0 0 0 0 0 0 0 0 0 0 0 0 0 0 0 0 0 0 0 0 0 0 0 0 0 0 0 0 0 0 0 0 1 1 1 1 2
CIN
0 0 0 0 0 0 0 0 0 0 0 0 0 -23 -176 -279 -158 0 -41 -247 -131 -77 -27 -7 -2 0 0 0 0 0 0 0 0 -10 -9 -2 -1 -7 -13 -15 -9 -3 -7 -13 -14 -15 -1 -2 -2
0 0 0 0 0 0 0 0 0 0 0 0 0 -30 -224 -136 -335 -269 -136 -120 -97 -47 -31 -11 -3 -1 0 0 0 0 0 0 0 0 -1 -6 -5 -1 0 0 -13 -6 -16 -13 -2 -3 -3 -7 -6
0 0 0 0 0 0 0 0 0 0 0 0 -89 0 0 0 0 -209 -121 -76 -72 -55 -54 -28 -5 -1 0 0 -1 -1 -2 -1 0 0 0 0 -1 -4 -5 -3 -3 -5 0 -3 -17 -17 -9 -10 -16
0 0 0 0 0 0 0 0 0 0 0 0 0 0 0 0 -41 -138 -97 -127 -141 -86 -74 -17 -2 0 0 0 0 0 0 0 -1 -2 -3 -2 -2 -1 -2 -1 -1 -1 -1 0 0 0 0 0 -1
0 0 0 0 0 0 0 0 0 0 0 0 0 0 0 -48 -223 -92 -163 -183 -182 -148 -77 -28 -4 -1 0 0 0 0 0 0 0 0 -1 -1 -1 -1 -1 -1 -1 0 -1 0 0 -3 0 -1 -1
0 0 0 0 0 0 0 0 0 0 0 0 0 0 0 -186 -139 -244 -465 -398 -355 -317 -293 -210 -134 -65 -43 -23 -43 -56 -59 -85 -71 -45 -25 -26 -39 -51 -35 -10 0 0 0 0 0 0 0 0 0
0 0 0 0 0 0 0 0 0 0 0 0 0 0 0 -185 -201 -299 0 0 0 0 0 0 0 -40 -35 -39 0 0 0 0 0 0 0 0 0 0 0 0 0 -14 -68 -3 0 0 -1 -1 0
0 0 0 0 0 0 0 0 0 0 0 0 0 0 0 0 0 0 0 0 0 0 0 0 0 0 0 0 0 0 0 0 0 0 0 0 0 0 0 0 0 0 0 0 0 0 -65 -12 -10
0 0 0 0 0 0 0 0 0 0 0 0 0 0 0 0 0 0 0 0 0 0 0 0 0 0 0 0 0 0 0 0 0 0 0 0 0 0 0 0 0 0 0 0 0 0 0 0 0
0 0 0 0 0 0 0 0 0 0 0 0 0 0 0 0 0 0 0 0 0 0 0 0 0 0 0 0 0 0 0 0 0 0 0 0 0 0 0 0 0 0 0 0 0 0 0 0 0
0 0 0 0 0 0 0 0 0 0 0 0 0 0 0 0 0 0 0 0 0 0 0 0 0 0 0 0 0 0 0 0 0 0 0 0 0 0 0 0 0 0 0 0 0 0 0 0 0
0 0 0 0 0 0 0 0 0 0 0 0 0 0 0 0 0 0 0 0 0 0 0 0 0 0 0 0 0 0 0 0 0 0 0 0 0 0 0 0 0 0 0 0 0 0 0 0 0
0 0 0 0 0 0 0 0 0 0 0 0 0 0 0 0 0 0 0 0 0 0 0 0 0 0 0 0 0 0 0 0 0 0 0 0 0 0 0 0 0 0 0 0 0 0 0 0 0
0 0 0 0 0 0 0 0 0 0 0 0 0 0 0 0 0 0 0 0 0 0 0 0 0 0 0 0 0 0 0 0 0 0 0 0 0 0 0 0 0 0 0 0 0 0 0 0 0
0 0 0 0 0 0 0 0 0 0 0 0 0 0 0 0 0 0 0 0 0 0 0 0 0 0 0 0 0 0 0 0 0 0 0 0 0 0 0 0 0 0 0 0 0 0 0 0 0
0 0 0 0 0 0 0 0 0 0 0 0 0 0 0 0 0 0 0 0 0 0 0 0 0 0 0 0 0 0 0 0 0 0 0 0 0 0 0 0 0 0 0 0 0 0 0 0 0
0 0 0 0 0 0 0 0 0 0 0 0 0 0 0 0 0 0 0 0 0 0 0 0 0 0 0 0 0 0 0 0 0 0 0 0 0 0 0 0 0 0 0 0 0 0 0 0 0
0 0 0 0 0 0 0 0 0 0 0 0 0 0 0 0 0 0 0 0 0 0 0 0 0 0 0 0 0 0 0 0 0 0 0 0 0 0 0 0 0 0 0 0 0 0 0 0 0
0 0 0 0 0 0 0 0 0 0 0 0 0 0 0 0 0 0 0 0 0 0 0 0 0 0 0 0 0 0 0 0 0 0 0 0 0 0 0 0 0 0 0 0 0 0 0 0 0
0 0 0 0 0 0 0 0 0 0 0 0 0 0 0 0 0 0 0 0 0 0 0 0 0 0 0 0 0 0 0 0 0 0 0 0 0 0 0 0 0 0 0 0 0 0 0 0 0
0 0 0 0 0 0 0 0 0 0 0 0 0 0 0 0 0 0 0 0 0 0 0 0 0 0 0 0 0 0 0 0 0 0 0 0 0 0 0 0 0 0 0 0 0 0 -2 0 -1
0 0 0 0 0 0 0 0 0 0 0 0 0 0 0 0 0 0 0 0 0 0 0 0 0 0 0 0 0 0 0 0 0 0 0 0 0 0 0 0 0 0 0 0 0 0 0 -1 0
0 0 0 0 0 0 0 0 0 0 0 0 0 0 0 0 0 0 0 0 0 0 0 0 0 0 0 0 0 0 0 0 0 0 0 0 0 0 0 0 0 0 0 0 0 0 0 0 0
0 0 0 0 0 0 0 0 0 0 0 0 0 0 0 0 0 0 0 0 0 0 0 0 0 0 0 0 0 0 0 0 0 0 0 0 0 0 0 0 0 0 0 0 -2 0 0 0 0
0 0 0 0 0 0 0 0 0 0 0 0 0 0 0 0 0 0 0 0 0 0 0 0 0 0 0 0 0 0 0 0 0 0 0 0 0 0 0 0 0 -1 -1 -1 0 -1 0 0 0
0 0 0 0 0 0 0 0 0 0 0 0 0 0 0 0 0 0 0 0 0 0 0 0 0 0 0 0 0 0 0 0 0 0 0 0 0 0 0 -1 0 0 0 0 0 0 0 0 0
0 0 0 0 0 0 0 0 0 0 0 0 0 0 0 0 0 0 0 0 0 0 0 0 0 0 0 0 0 0 0 0 0 0 0 0 0 0 0 0 0 0 0 0 0 0 0 0 0
0 0 0 0 0 0 0 0 0 0 0 0 0 0 0 0 0 0 0 0 0 0 0 0 0 0 0 0 0 0 0 0 0 0 0 0 0 0 0 0 0 0 0 0 0 0 0 0 0
0 0 0 0 0 0 0 0 0 0 0 0 0 0 0 0 0 0 0 0 0 0 0 0 0 0 0 0 0 0 0 0 0 0 0 0 0 0 0 0 0 0 0 0 0 0 0 0 0
0 0 0 0 0 0 0 0 0 0 0 0 0 0 0 0 0 0 0 0 0 0 0 0 0 0 0 0 0 0 0 0 0 0 0 0 0 0 0 0 0 0 0 0 0 0 0 0 0
Wind_Speed
2 2 2 5 3 4 4 8 3 6 4 1 2 3 5 3 4 5 3 4 7 8 7 7 11 11 11 10 9 8 8 9 8 8 8 8 8 8 8 8 8 8 8 7 5 2 5 6 7
0 3 4 3 4 2 6 5 6 9 5 8 6 3 4 2 1 4 3 4 10 9 7 6 9 10 10 9 9 8 8 8 8 7 7 7 6 6 6 6 6 5 5 5 5 5 4 3 5
1 3 4 4 4 7 6 6 7 3 5 4 3 4 3 5 1 5 2 8 9 9 7 6 9 9 10 9 8 7 7 7 7 6 5 5 5 4 4 4 3 3 3 3 3 2 1 2 4
3 3 4 2 10 6 7 4 1 6 2 4 5 5 1 2 5 5 5 7 11 8 8 6 9 9 9 8 8 7 6 5 5 4 4 3 3 2 1 1 1 2 3 4 5 5 6 5 5
3 3 2 4 7 5 5 6 2 6 4 3 4 5 2 3 5 8 5 8 12 8 6 6 8 9 9 9 8 8 8 7 6 5 4 3 3 3 3 3 3 3 4 5 6 7 7 6 6
3 3 2 12 6 4 6 8 3 6 7 1 5 7 3 2 5 5 5 8 6 9 6 6 7 6 7 7 7 7 8 8 8 9 9 9 9 9 8 8 9 8 7 7 7 8 9 8 8
6 4 5 3 5 6 10 5 5 9 8 6 10 6 1 4 5 6 7 7 6 7 7 5 6 6 10 11 10 10 11 12 12 12 13 13 13 12 11 11 10 11 11 12 11 9 10 11 11
4 4 4 6 7 7 4 2 2 8 7 4 5 7 6 6 8 7 6 7 7 7 7 6 6 6 6 5 10 11 12 12 13 13 12 12 12 12 12 11 13 13 14 15 16 15 15 13 11
4 2 8 10 8 6 5 3 1 1 4 3 1 6 4 14 10 7 5 4 5 4 5 5 6 6 6 6 6 8 10 11 11 10 10 8 5 6 8 11 14 15 16 15 15 16 16 16 12
5 6 9 4 5 4 2 1 3 1 2 1 1 1 6 15 13 12 9 8 6 6 4 5 6 6 5 4 5 5 5 5 5 6 6 4 5 5 6 7 11 13 13 15 16 16 15 10 5
6 10 7 3 4 3 2 2 2 2 4 5 8 6 11 12 8 11 8 9 8 6 4 6 6 5 6 5 3 3 3 3 4 6 6 5 4 4 4 4 4 4 8 4 7 7 4 7 5
4 7 4 8 3 2 3 2 3 4 4 5 7 8 13 13 14 13 11 9 9 7 7 7 7 6 5 4 3 3 3 3 3 4 6 4 3 4 4 3 4 4 3 5 4 3 6 6 6
6 4 5 7 7 5 1 6 5 6 6 1 2 4 10 14 12 7 8 7 8 8 7 7 7 7 6 6 3 3 3 4 3 4 5 4 4 4 4 4 4 4 4 4 5 5 5 6 6
3 7 11 5 5 4 5 5 5 6 6 7 6 10 10 9 10 6 8 8 10 8 8 7 7 7 6 5 5 3 3 3 4 4 4 5 3 3 3 4 4 4 4 4 4 4 5 6 6
3 4 4 5 6 7 4 9 15 7 6 10 12 11 10 12 9 11 11 9 13 9 8 8 8 7 7 7 5 4 3 3 4 3 4 5 4 5 4 4 4 4 4 5 4 5 5 5 5
3 2 3 3 8 5 9 23 3 8 8 13 11 11 11 13 10 9 8 9 9 9 10 8 7 8 7 6 4 4 3 3 3 2 3 5 5 5 4 3 4 4 4 4 4 4 5 5 6
3 4 6 7 8 4 7 11 4 2 7 10 10 10 9 9 8 7 9 9 10 12 11 9 8 8 7 6 5 4 4 4 2 3 3 5 5 5 4 4 4 4 4 4 4 4 4 6 7
5 4 3 5 2 2 4 19 8 7 4 8 8 9 9 10 14 9 9 8 8 9 9 8 6 8 7 5 4 3 3 2 2 3 4 5 4 5 4 4 4 4 4 4 4 5 4 5 7
2 3 4 3 3 4 9 19 14 10 6 10 9 9 9 14 7 7 8 8 9 8 10 9 9 7 5 2 3 2 1 1 1 3 5 5 4 5 5 4 5 4 4 5 5 5 6 5 4
6 3 5 6 3 5 6 15 14 10 13 14 15 12 14 6 7 8 8 8 12 14 10 9 8 7 4 3 2 2 2 1 1 1 4 5 6 5 6 5 4 4 5 5 5 4 4 3 3
8 10 6 7 3 4 5 11 8 9 12 8 10 11 11 17 14 10 10 11 9 13 13 10 9 8 6 7 4 3 2 1 3 3 3 3 5 5 5 5 4 4 4 4 5 5 5 6 3
5 7 12 7 2 5 2 8 6 5 9 7 12 12 14 15 13 14 15 12 14 13 8 9 9 8 7 7 4 4 3 2 1 1 2 4 5 5 5 5 5 5 4 5 4 5 6 6 7
8 1 5 3 3 2 3 2 8 2 8 11 11 11 13 16 17 19 18 17 14 11 10 8 8 8 7 6 6 5 4 2 0 2 4 4 4 5 5 5 5 5 4 4 5 6 6 5 6
4 5 6 4 2 3 9 9 9 6 11 7 2 7 11 12 15 16 15 13 9 7 9 8 9 7 7 7 6 6 6 3 0 2 3 3 3 3 4 5 5 5 4 5 4 6 7 7 7
1 5 2 5 4 8 1 4 14 7 9 6 5 6 8 9 14 16 16 14 12 13 11 9 9 8 8 7 7 6 5 4 3 3 2 4 3 3 4 5 5 5 6 6 7 6 8 7 7
7 8 5 8 4 5 2 9 10 7 9 8 8 5 7 9 13 16 17 16 16 15 12 9 9 8 8 7 6 6 5 3 2 2 2 3 2 3 5 5 6 7 7 7 7 6 6 8 7
6 5 4 3 2 3 5 8 11 8 10 7 7 6 10 10 11 14 14 14 14 13 14 12 10 7 8 7 6 6 5 5 4 2 1 2 3 4 4 5 6 6 7 8 8 6 7 7 8
2 2 3 4 3 5 6 7 7 6 8 5 6 8 8 7 9 11 12 14 12 12 10 8 8 9 8 7 6 5 6 5 3 2 2 2 4 4 5 5 5 6 7 7 8 7 8 9 8
3 1 2 6 5 5 2 8 9 11 6 7 8 8 8 8 11 11 11 11 10 8 9 9 8 9 8 7 6 6 5 5 4 3 1 2 3 4 5 5 5 6 7 7 7 8 9 10 10
4 8 8 7 7 4 3 13 3 3 6 5 8 7 6 7 8 9 9 10 11 11 10 11 8 8 8 7 7 6 5 5 4 3 0 2 3 4 5 5 6 6 7 7 8 9 9 9 10
Wind_Direction
340 351 62 42 61 68 248 253 254 287 291 228 38 152 143 32 137 201 249 163 138 149 139 149 144 139 133 127 121 122 132 139 129 120 112 104 95 94 91 89 77 68 62 56 55 74 199 201 185
23 119 50 89 121 177 253 238 238 236 230 112 95 91 42 115 135 145 109 153 138 132 122 125 140 140 136 130 124 120 118 123 128 123 119 112 105 98 92 80 67 56 56 53 47 36 11 312 236
188 59 107 159 184 198 220 215 239 297 148 144 92 36 120 154 145 138 146 123 110 111 118 128 139 142 135 135 133 128 120 119 119 116 111 104 100 92 75 75 63 46 29 0 350 337 341 304 281
152 32 26 150 233 249 210 232 269 353 276 201 131 93 20 211 163 160 133 117 98 96 100 122 128 132 136 134 138 134 127 121 115 115 113 108 98 96 90 78 66 351 321 314 305 302 303 318 286
48 73 193 238 248 251 249 254 261 286 271 185 168 181 115 1 109 115 129 109 110 98 100 110 110 115 117 115 115 113 109 98 90 82 74 67 48 24 7 351 329 309 298 295 293 288 287 286 291
80 108 157 228 235 250 268 235 211 217 249 237 85 124 164 103 119 132 114 101 108 119 94 88 91 112 112 112 115 116 105 95 83 77 75 67 58 46 34 21 6 353 337 317 303 300 297 279 274
148 131 210 219 250 260 249 200 205 230 223 222 144 121 216 183 162 131 113 104 108 101 100 86 89 81 80 83 82 87 88 83 78 73 71 67 61 55 49 40 33 17 359 350 330 318 325 308 284
141 124 209 223 208 258 242 214 231 195 208 99 149 166 195 199 151 116 104 105 106 100 103 108 98 97 92 91 95 90 85 80 73 64 59 53 48 43 37 33 25 23 15 7 3 355 341 318 324
136 152 226 219 174 233 290 275 89 348 129 62 46 168 187 124 122 109 117 94 95 106 126 122 115 107 105 99 83 76 74 70 66 55 50 43 36 27 25 17 16 11 4 358 354 350 347 343 322
168 206 228 193 205 227 265 251 328 126 171 65 126 23 105 135 153 152 161 157 150 153 154 142 130 128 110 95 85 77 66 63 60 48 42 42 39 26 28 16 14 6 358 353 347 343 340 342 333
204 231 233 263 228 199 218 241 303 141 245 220 200 168 156 150 163 164 174 174 166 162 145 156 145 135 120 107 93 69 61 57 47 40 39 34 27 17 17 7 6 2 355 354 346 342 339 329 323
240 232 240 229 249 226 232 282 294 181 233 332 233 173 159 168 179 180 175 171 159 158 160 158 146 131 119 106 91 85 68 54 44 35 32 33 18 9 5 3 357 3 348 344 341 332 322 318 314
245 250 227 229 240 237 235 230 236 251 226 309 66 182 191 182 188 187 170 160 159 166 164 167 151 142 135 114 103 84 69 60 47 33 26 28 18 4 349 352 350 347 350 348 340 332 322 314 306
255 202 251 226 229 223 209 256 134 248 242 233 169 211 217 199 191 153 166 177 178 161 169 161 159 147 137 123 114 100 85 73 52 33 18 20 17 359 359 344 343 346 346 334 327 316 310 308 300
249 262 274 223 209 224 160 273 233 212 210 223 208 210 217 219 187 192 188 178 177 176 157 165 156 149 133 127 115 95 70 69 60 42 29 24 16 5 351 336 334 320 322 330 329 320 311 311 309
232 173 215 251 164 231 158 258 224 218 192 234 227 210 205 214 208 201 187 174 164 149 166 160 155 144 133 127 116 103 83 79 77 58 32 23 9 358 344 337 322 317 325 326 333 316 313 300 298
263 229 222 321 202 150 184 265 234 88 209 236 228 226 212 217 216 210 192 176 165 163 156 159 149 146 137 123 112 102 94 84 52 53 34 13 7 356 356 333 313 325 332 329 319 317 303 308 304
202 226 244 229 249 227 229 260 257 246 247 252 245 229 220 214 214 199 186 172 159 157 154 145 143 140 130 115 99 82 91 76 74 39 47 27 10 359 345 330 334 346 328 312 309 300 296 288 292
182 193 241 248 230 189 231 256 261 264 261 261 241 228 226 224 220 196 185 163 145 148 145 153 147 153 135 114 119 104 166 306 41 40 29 13 5 354 349 344 341 329 321 301 297 306 310 314 306
245 272 261 283 241 187 288 270 264 253 248 232 228 221 218 209 198 183 169 160 168 162 160 154 153 152 143 121 135 128 153 188 150 42 11 9 4 348 334 338 326 327 319 309 297 293 303 293 322
234 234 243 233 328 242 326 283 240 257 242 234 226 224 207 205 194 180 174 174 161 168 167 161 156 149 143 128 115 95 84 43 34 19 3 360 340 331 326 324 317 319 315 313 306 286 294 297 310
251 214 229 232 162 236 98 279 261 253 258 222 233 207 211 201 192 176 175 176 175 176 154 148 149 146 144 144 131 133 136 122 229 302 310 326 335 326 316 307 310 308 295 287 285 308 322 311 300
230 125 185 198 185 20 202 12 269 261 278 255 234 213 207 199 185 177 179 177 180 159 159 151 144 144 142 144 143 140 134 146 218 313 322 316 314 307 306 307 298 287 283 281 291 299 301 299 293
139 68 51 53 89 323 207 174 269 203 221 250 213 218 201 187 183 175 174 164 157 139 145 152 149 151 151 149 147 145 144 160 281 313 302 312 299 306 321 313 291 281 286 286 299 300 290 287 282
244 95 310 343 356 226 38 209 246 253 262 248 255 249 202 176 169 167 161 163 156 163 166 158 156 159 162 153 155 155 157 164 202 260 292 319 324 342 317 301 308 316 314 310 303 296 288 287 287
205 156 192 209 214 265 122 237 246 250 269 252 249 217 167 169 175 176 172 168 168 169 167 162 165 158 161 157 165 161 155 158 189 226 264 301 309 302 277 309 305 306 306 303 297 292 287 282 280
190 221 180 73 81 35 234 279 288 271 251 252 257 185 185 174 175 175 172 170 167 168 175 172 165 161 164 165 159 167 158 164 203 237 272 280 302 281 306 304 302 302 305 297 294 289 286 281 276
180 176 111 76 263 269 276 273 240 300 275 243 241 216 192 173 172 173 173 170 172 174 164 154 165 169 162 163 162 166 168 176 181 192 243 290 289 285 294 296 297 304 300 298 295 290 282 279 278
147 259 42 129 184 217 281 260 218 238 342 250 250 223 199 182 182 179 177 173 163 150 153 165 164 157 164 167 161 158 172 173 178 195 219 293 296 303 301 299 299 290 297 297 292 287 284 280 279
210 198 175 171 213 240 169 252 198 266 301 301 262 237 204 191 186 176 163 155 160 166 163 173 167 165 174 166 158 166 167 170 189 201 166 285 296 301 301 296 287 301 304 298 295 291 288 283 284